#timestamp,LO_Frequency,Hit,StdDev 
1568905215.2,286047000.1,N
1568905235.1,286047000.0,N
1568905236.0,286047000.0,N
1568905255.8,286047002.5,N
1568905275.7,286047000.0,N
1568905295.5,286046999.0,N
1568905315.3,286046998.3,N
1568905335.2,286046999.1,N
1568905355.0,286046999.2,N
1568905355.9,286046999.2,N
1568905375.8,286046999.6,N
1568905395.6,286046998.6,N
1568905415.4,286046999.4,N
1568905435.3,286046999.2,N
1568905455.1,286046999.3,N
1568905475.8,286046997.1,N
1568905495.7,286046997.9,N
1568905515.5,286046997.8,N
1568905535.4,286046997.4,N
1568905555.2,286046996.7,N
1568905575.0,286046999.4,N
1568905575.9,286046999.4,N
1568905595.8,286047001.2,N
1568905615.6,286046998.2,N
1568905635.5,286046998.7,N
1568905655.3,286046998.2,N
1568905675.1,286047000.4,N
1568905695.9,286047000.3,N
1568905715.7,286047000.9,N
1568905735.5,286046998.1,N
1568905755.4,286046999.2,N
1568905775.2,286046997.8,N
1568905795.1,286046996.8,N
1568905796.0,286046996.8,N
1568905815.8,286046999.5,N
1568905835.6,286046996.8,N
1568905855.5,286046997.4,N
1568905875.3,286046996.9,N
1568905895.2,286046999.4,N
1568905915.9,286046998.6,N
1568905935.7,286046998.4,N
1568905955.6,286046999.3,N
1568905975.4,286046997.0,N
1568905995.2,286046998.0,N
1568906015.1,286046997.4,N
1568906016.0,286046997.4,N
1568906035.8,286046996.8,N
1568906055.7,286046999.0,N
1568906075.5,286046998.9,N
1568906095.3,286046998.6,N
1568906115.2,286046998.3,N
1568906135.0,286047001.2,N
1568906135.9,286047001.2,N
1568906155.8,286046999.4,N
1568906175.6,286046999.0,N
1568906195.4,286046999.4,N
1568906215.3,286046994.9,Y
1568906235.1,286046996.6,P
1568906255.9,286046996.6,P
1568906275.7,286046996.9,P
1568906295.5,286046999.2,N
1568906315.4,286046996.9,N
1568906335.2,286046997.7,N
1568906355.0,286046996.7,Y
1568906356.0,286046996.7,P
1568906375.8,286047000.4,N
1568906395.6,286047001.2,N
1568906415.5,286047001.0,N
1568906435.3,286047000.5,N
1568906455.1,286047000.2,N
1568906475.9,286047002.0,N
1568906495.7,286047002.1,N
1568906515.6,286046999.7,N
1568906535.4,286047001.6,N
1568906555.2,286047004.3,N
1568906575.1,286047001.9,N
1568906576.0,286047001.9,N
1568906595.8,286047002.2,N
1568906615.6,286047002.6,N
1568906635.5,286046999.9,N
1568906655.3,286047000.2,N
1568906675.2,286047000.3,N
1568906695.9,286047000.7,N
1568906715.7,286047000.7,N
1568906735.6,286047000.5,N
1568906755.4,286047000.0,N
1568906775.3,286047002.2,N
1568906795.1,286047000.1,N
1568906796.0,286047000.1,N
1568906815.8,286046999.8,N
1568906835.7,286047002.8,N
1568906855.5,286046999.7,N
1568906875.3,286046999.8,N
1568906895.2,286047002.4,N
1568906915.0,286047002.8,N
1568906915.9,286047002.8,N
1568906935.8,286047002.4,N
1568906955.6,286047001.3,N
1568906975.4,286047003.9,Y
1568906995.3,286046999.9,P
1568907015.1,286046999.9,N
1568907035.9,286047000.3,N
1568907055.7,286047001.1,N
1568907075.5,286046998.6,N
1568907095.4,286047001.0,N
1568907115.2,286046998.3,N
1568907135.0,286046999.4,N
1568907136.0,286046999.4,N
1568907155.8,286046999.4,N
1568907175.6,286046999.1,N
1568907195.5,286046996.9,Y
1568907215.3,286046997.7,P
1568907235.1,286046997.6,N
1568907255.9,286046997.5,N
1568907275.7,286046997.0,Y
1568907295.6,286047000.6,P
1568907315.4,286047000.4,N
1568907335.2,286047002.3,N
1568907355.1,286047001.8,N
1568907356.0,286047001.8,N
1568907375.8,286047004.2,Y
1568907395.7,286047001.7,P
1568907415.5,286047001.6,P
1568907435.3,286047001.3,P
1568907455.2,286047002.8,Y
1568907475.0,286047000.4,P
1568907475.9,286047000.4,N
1568907495.8,286047001.1,N
1568907515.6,286047000.6,N
1568907535.4,286047001.1,N
1568907555.3,286047000.8,N
1568907575.1,286047000.6,N
1568907595.9,286047000.1,N
1568907615.7,286047002.7,Y
1568907635.5,286047000.0,P
1568907655.4,286046999.7,N
1568907675.2,286047000.2,N
1568907695.0,286046998.3,Y
1568907696.0,286046998.3,P
1568907715.8,286047001.0,N
1568907735.6,286047000.9,N
1568907755.5,286046998.2,N
1568907775.3,286046998.1,N
1568907795.1,286046999.0,N
1568907815.9,286046998.6,N
1568907835.7,286046998.5,N
1568907855.6,286046998.3,N
1568907875.4,286046998.4,N
1568907895.2,286047000.3,N
1568907915.1,286047000.3,N
1568907916.0,286047000.3,N
1568907935.8,286047002.8,N
1568907955.6,286047002.0,N
1568907975.5,286047002.0,N
1568907995.3,286046999.7,N
1568908015.2,286046999.7,N
1568908035.9,286047000.0,N
1568908055.7,286047001.0,N
1568908075.6,286047002.7,N
1568908095.4,286047001.2,N
1568908115.3,286047001.0,N
1568908135.1,286047001.2,N
1568908136.0,286047001.2,N
1568908155.8,286047000.4,N
1568908175.7,286047000.2,N
1568908195.5,286047002.4,N
1568908215.3,286046999.8,N
1568908235.2,286047002.3,N
1568908255.0,286047002.0,N
1568908255.9,286047002.0,N
1568908275.8,286046999.7,N
1568908295.6,286047002.8,N
1568908315.4,286047000.0,N
1568908335.3,286047000.1,N
1568908355.1,286047002.4,N
1568908375.9,286047002.8,N
1568908395.7,286047001.6,N
1568908415.5,286047001.7,N
1568908435.4,286047003.7,Y
1568908455.2,286047001.7,P
1568908475.0,286047000.1,N
1568908476.0,286047000.1,N
1568908495.8,286047002.1,N
1568908515.6,286047000.3,N
1568908535.5,286047000.2,N
1568908555.3,286046999.9,N
1568908575.1,286047000.6,N
1568908595.9,286047002.7,Y
1568908615.7,286046999.9,P
1568908635.6,286047000.2,N
1568908655.4,286047002.6,P
1568908675.2,286047002.2,N
1568908695.1,286047001.7,N
1568908696.0,286047001.7,N
1568908715.8,286047003.5,Y
1568908735.7,286047001.3,P
1568908755.5,286047002.0,P
1568908775.3,286047002.0,P
1568908795.2,286047001.7,Y
